EST,Max TemperatureF,Mean TemperatureF,Min TemperatureF,Max Dew PointF,MeanDew PointF,Min DewpointF,Max Humidity, Mean Humidity, Min Humidity, Max Sea Level PressureIn, Mean Sea Level PressureIn, Min Sea Level PressureIn, Max VisibilityMiles, Mean VisibilityMiles, Min VisibilityMiles, Max Wind SpeedMPH, Mean Wind SpeedMPH, Max Gust SpeedMPH,PrecipitationIn, CloudCover, Events, WindDirDegrees
2012-11-1,77,66,55,61,57,50,94,76,50,30.04,30.00,29.93,10.0,9.2,6.0,13,6,16,0.00,0,,251
2012-11-2,77,62,48,55,47,37,94,62,29,30.12,30.06,30.02,10.0,9.6,8.0,12,2,17,0.00,0,,272
2012-11-3,82,68,53,64,56,50,100,71,32,30.14,30.10,30.07,10.0,9.2,5.0,8,2,,0.00,0,,332
2012-11-4,82,68,55,63,58,52,94,73,42,30.13,30.07,30.01,10.0,8.8,6.0,10,1,,0.00,0,,240
2012-11-5,78,70,62,66,60,55,100,79,44,30.02,29.99,29.93,10.0,7.0,0.2,12,3,,0.00,3,,307
2012-11-6,77,66,55,59,56,54,94,75,50,29.98,29.89,29.82,10.0,8.7,6.0,13,2,21,0.00,0,,266
2012-11-7,64,58,51,55,48,43,100,72,45,30.02,29.93,29.86,10.0,9.0,4.0,16,6,22,0.00,3,,302
2012-11-8,66,55,44,45,43,39,93,69,37,30.20,30.12,30.00,10.0,9.7,7.0,12,5,,0.00,0,,333
2012-11-9,71,56,42,48,43,37,93,69,31,30.31,30.25,30.20,10.0,8.7,4.0,10,1,,0.00,0,,25
2012-11-10,73,58,44,57,51,41,94,75,50,30.36,30.30,30.26,10.0,9.5,6.0,10,2,16,0.00,3,,41
2012-11-11,78,66,55,64,60,54,100,78,54,30.34,30.30,30.28,10.0,9.0,6.0,18,4,26,0.00,3,,83
2012-11-12,80,68,57,66,63,57,100,84,58,30.29,30.24,30.20,9.0,6.5,1.2,14,2,18,0.00,1,,110
2012-11-13,80,70,59,66,62,57,100,82,51,30.22,30.17,30.13,10.0,7.6,5.0,10,1,,0.00,0,,44
2012-11-14,73,68,64,66,65,63,100,91,78,30.22,30.17,30.14,10.0,5.4,1.0,13,7,18,0.00,6,,356
2012-11-15,64,60,57,64,60,55,100,94,88,30.19,30.15,30.10,7.0,3.3,0.5,9,6,,0.00,8,,343
2012-11-16,68,62,55,57,55,54,100,84,64,30.20,30.16,30.14,10.0,7.6,5.0,14,9,17,0.00,6,,351
2012-11-17,75,66,57,64,60,55,100,85,65,30.21,30.17,30.13,10.0,6.2,4.0,17,8,23,0.00,5,,356
2012-11-18,66,60,53,61,56,52,94,86,72,30.23,30.19,30.15,10.0,6.3,3.0,15,9,21,0.00,5,,353
2012-11-19,57,55,53,55,53,52,94,89,88,30.19,30.15,30.10,10.0,6.7,2.5,13,9,18,0.00,8,,37
2012-11-20,68,60,51,57,54,50,100,81,68,30.10,30.06,30.03,10.0,7.7,4.0,14,8,20,0.00,2,,45
2012-11-21,71,61,51,55,49,41,100,74,35,30.10,30.06,30.03,10.0,7.9,4.0,14,5,18,0.00,0,,173
2012-11-22,66,54,42,50,40,30,93,64,28,30.21,30.15,30.09,10.0,9.0,7.0,18,5,25,0.00,0,,319
2012-11-23,71,56,41,46,40,36,93,64,27,30.23,30.16,30.10,10.0,9.5,8.0,12,2,,0.00,0,,319
2012-11-24,69,56,44,55,47,41,100,77,46,30.13,30.08,30.02,10.0,7.5,2.0,14,2,18,0.00,0,,320
2012-11-25,69,53,37,43,37,27,93,64,21,30.20,30.15,30.10,10.0,9.5,8.0,7,0,,0.00,0,,308
2012-11-26,75,57,39,55,48,36,93,73,44,30.27,30.20,30.17,10.0,9.5,8.0,12,1,,0.00,0,,92
2012-11-27,78,66,53,63,57,52,94,78,47,30.22,30.17,30.11,10.0,8.4,0.5,9,2,,0.00,1,,206
2012-11-28,62,58,53,59,55,52,100,89,77,30.31,30.24,30.15,10.0,6.4,3.0,13,5,17,0.00,4,,351
2012-11-29,73,62,51,57,53,48,100,76,44,30.33,30.29,30.26,10.0,7.2,3.0,15,7,21,0.00,1,,25
2012-11-30,75,62,48,61,53,46,100,77,47,30.31,30.26,30.22,10.0,7.7,1.0,12,2,18,0.00,1,,76